• In Uzbekistan
  • List of Countries
  • For 7 days
  • Water Temperature
  • Satellite Maps
  • Weather Map
  • Weather Widgets
  • user-avatar
    Login

    Hourly Weather Bujumbura

    Today, 25 June, Tuesday

    Time Temperature Precipitation Wind Pressure Humidity
    00:00 +24°C° 0.1 mm 1 mps 693 mmHg 82%
    01:00 +24°C° 0.1 mm 1 mps 692 mmHg 82%
    02:00 +24°C° 0 mm 1 mps 692 mmHg 83%
    03:00 +24°C° 0 mm 1 mps 692 mmHg 83%
    04:00 +24°C° 0 mm 1 mps 692 mmHg 83%
    05:00 +22°C° 0 mm 0 mps 692 mmHg 82%
    06:00 +23°C° 0 mm 0 mps 693 mmHg 81%
    07:00 +23°C° 0 mm 0 mps 693 mmHg 79%
    08:00 +24°C° 0 mm 0 mps 694 mmHg 78%
    09:00 +27°C° 0.5 mm 1 mps 693 mmHg 75%
    10:00 +28°C° 0.5 mm 1 mps 693 mmHg 72%
    11:00 +29°C° 0.5 mm 1 mps 693 mmHg 68%
    12:00 +29°C° 0.7 mm 2 mps 692 mmHg 70%
    13:00 +28°C° 0.7 mm 2 mps 692 mmHg 72%
    14:00 +28°C° 0 mm 2 mps 691 mmHg 74%
    15:00 +28°C° 0.5 mm 2 mps 691 mmHg 76%
    16:00 +27°C° 0.5 mm 1 mps 691 mmHg 78%
    17:00 +27°C° 0.5 mm 1 mps 691 mmHg 80%
    18:00 +26°C° 0.1 mm 1 mps 691 mmHg 81%
    19:00 +26°C° 0.1 mm 1 mps 692 mmHg 81%
    20:00 +23°C° 0.1 mm 0 mps 693 mmHg 82%
    21:00 +25°C° 0 mm 1 mps 693 mmHg 82%
    22:00 +25°C° 0 mm 1 mps 693 mmHg 81%
    23:00 +25°C° 0 mm 1 mps 694 mmHg 81%

    Tomorrow, 26 June, Wednesday

    Time Temperature Precipitation Wind Pressure Humidity
    00:00 +24°C° 0 mm 1 mps 693 mmHg 81%
    01:00 +24°C° 0 mm 1 mps 692 mmHg 81%
    02:00 +24°C° 0 mm 1 mps 692 mmHg 80%
    03:00 +24°C° 0 mm 1 mps 692 mmHg 80%
    04:00 +24°C° 0 mm 1 mps 692 mmHg 79%
    05:00 +24°C° 0 mm 1 mps 692 mmHg 78%
    06:00 +25°C° 0 mm 1 mps 693 mmHg 76%
    07:00 +26°C° 0 mm 1 mps 693 mmHg 74%
    08:00 +26°C° 0 mm 1 mps 694 mmHg 72%
    09:00 +27°C° 0.2 mm 1 mps 694 mmHg 70%
    10:00 +28°C° 0.2 mm 1 mps 694 mmHg 68%
    11:00 +29°C° 0.2 mm 1 mps 694 mmHg 66%
    12:00 +29°C° 0.3 mm 2 mps 693 mmHg 67%
    13:00 +29°C° 0.3 mm 3 mps 692 mmHg 69%
    14:00 +29°C° 0.3 mm 4 mps 692 mmHg 70%
    15:00 +29°C° 0.7 mm 3 mps 692 mmHg 72%
    16:00 +28°C° 0.7 mm 3 mps 692 mmHg 74%
    17:00 +28°C° 0.7 mm 3 mps 691 mmHg 76%
    18:00 +27°C° 0.2 mm 2 mps 692 mmHg 78%
    19:00 +26°C° 0.2 mm 2 mps 692 mmHg 79%
    20:00 +25°C° 0.2 mm 1 mps 693 mmHg 81%
    21:00 +25°C° 0 mm 1 mps 693 mmHg 80%
    22:00 +25°C° 0 mm 1 mps 693 mmHg 80%
    23:00 +25°C° 0 mm 1 mps 694 mmHg 80%

    Day after tomorrow, 27 June, Thursday

    Time Temperature Precipitation Wind Pressure Humidity
    00:00 +24°C° 0 mm 1 mps 693 mmHg 80%
    01:00 +24°C° 0 mm 1 mps 693 mmHg 80%
    02:00 +24°C° 0 mm 1 mps 692 mmHg 81%
    03:00 +24°C° 0 mm 1 mps 692 mmHg 81%
    04:00 +24°C° 0 mm 1 mps 693 mmHg 80%
    05:00 +24°C° 0 mm 1 mps 693 mmHg 80%
    06:00 +24°C° 0 mm 1 mps 693 mmHg 79%
    07:00 +24°C° 0 mm 1 mps 694 mmHg 79%
    08:00 +25°C° 0 mm 1 mps 694 mmHg 78%
    09:00 +25°C° 0 mm 1 mps 694 mmHg 78%
    10:00 +25°C° 0 mm 1 mps 694 mmHg 78%
    11:00 +25°C° 0 mm 1 mps 694 mmHg 78%
    12:00 +26°C° 0 mm 1 mps 693 mmHg 74%
    13:00 +27°C° 0 mm 2 mps 693 mmHg 70%
    14:00 +28°C° 0 mm 2 mps 692 mmHg 66%
    15:00 +28°C° 0.1 mm 2 mps 692 mmHg 69%
    16:00 +27°C° 0.1 mm 2 mps 692 mmHg 71%
    17:00 +27°C° 0.1 mm 1 mps 692 mmHg 74%
    18:00 +26°C° 0.1 mm 1 mps 693 mmHg 76%
    19:00 +25°C° 0.1 mm 1 mps 693 mmHg 79%
    20:00 +24°C° 0.1 mm 1 mps 693 mmHg 81%
    21:00 +24°C° 0 mm 1 mps 694 mmHg 79%
    22:00 +24°C° 0 mm 1 mps 694 mmHg 78%
    23:00 +24°C° 0 mm 1 mps 694 mmHg 76%

    28 June, Friday

    Time Temperature Precipitation Wind Pressure Humidity
    00:00 +24°C° 0 mm 1 mps 693 mmHg 76%
    01:00 +24°C° 0 mm 1 mps 693 mmHg 76%
    02:00 +24°C° 0 mm 1 mps 693 mmHg 76%
    03:00 +24°C° 0 mm 1 mps 693 mmHg 76%
    04:00 +24°C° 0 mm 1 mps 693 mmHg 76%
    05:00 +24°C° 0 mm 1 mps 693 mmHg 76%
    06:00 +24°C° 0 mm 1 mps 693 mmHg 74%
    07:00 +25°C° 0 mm 1 mps 694 mmHg 73%
    08:00 +26°C° 0 mm 1 mps 694 mmHg 72%
    09:00 +27°C° 0.1 mm 1 mps 694 mmHg 68%
    10:00 +28°C° 0.1 mm 1 mps 694 mmHg 64%
    11:00 +30°C° 0.1 mm 1 mps 694 mmHg 60%
    12:00 +30°C° 0.3 mm 2 mps 693 mmHg 62%
    13:00 +29°C° 0.3 mm 3 mps 693 mmHg 64%
    14:00 +29°C° 0.3 mm 4 mps 692 mmHg 66%
    15:00 +29°C° 0.6 mm 3 mps 692 mmHg 69%
    16:00 +28°C° 0.6 mm 3 mps 691 mmHg 72%
    17:00 +28°C° 0.6 mm 3 mps 691 mmHg 75%
    18:00 +27°C° 0.3 mm 2 mps 692 mmHg 78%
    19:00 +25°C° 0.3 mm 2 mps 692 mmHg 80%
    20:00 +24°C° 0.3 mm 1 mps 693 mmHg 82%
    21:00 +24°C° 0 mm 1 mps 693 mmHg 81%
    22:00 +23°C° 0 mm 1 mps 693 mmHg 80%
    23:00 +23°C° 0 mm 1 mps 694 mmHg 79%

    29 June, Saturday

    Time Temperature Precipitation Wind Pressure Humidity
    00:00 +23°C° 0 mm 1 mps 693 mmHg 79%
    01:00 +23°C° 0 mm 1 mps 693 mmHg 79%
    02:00 +23°C° 0 mm 1 mps 693 mmHg 78%
    03:00 +22°C° 0 mm 1 mps 693 mmHg 78%
    04:00 +22°C° 0 mm 1 mps 693 mmHg 78%
    05:00 +22°C° 0 mm 1 mps 693 mmHg 78%
    06:00 +23°C° 0 mm 1 mps 693 mmHg 75%
    07:00 +25°C° 0 mm 1 mps 694 mmHg 72%
    08:00 +26°C° 0 mm 1 mps 695 mmHg 69%
    09:00 +28°C° 0 mm 1 mps 695 mmHg 64%
    10:00 +29°C° 0 mm 1 mps 694 mmHg 60%
    11:00 +31°C° 0 mm 1 mps 694 mmHg 55%
    12:00 +31°C° 0.2 mm 2 mps 694 mmHg 57%
    13:00 +30°C° 0.2 mm 2 mps 693 mmHg 59%
    14:00 +30°C° 0.2 mm 3 mps 692 mmHg 61%
    15:00 +30°C° 0.3 mm 3 mps 692 mmHg 66%
    16:00 +29°C° 0.3 mm 3 mps 692 mmHg 71%
    17:00 +28°C° 0.3 mm 3 mps 691 mmHg 75%
    18:00 +27°C° 0.1 mm 3 mps 692 mmHg 77%
    19:00 +26°C° 0.1 mm 2 mps 693 mmHg 80%
    20:00 +25°C° 0.1 mm 2 mps 693 mmHg 82%
    21:00 +24°C° 0 mm 1 mps 693 mmHg 81%
    22:00 +24°C° 0 mm 1 mps 694 mmHg 80%
    23:00 +23°C° 0 mm 1 mps 694 mmHg 79%

    30 June, Sunday

    Time Temperature Precipitation Wind Pressure Humidity
    00:00 +23°C° 0 mm 1 mps 693 mmHg 79%
    01:00 +23°C° 0 mm 1 mps 693 mmHg 79%
    02:00 +23°C° 0 mm 1 mps 693 mmHg 79%
    03:00 +22°C° 0 mm 1 mps 693 mmHg 79%
    04:00 +22°C° 0 mm 1 mps 693 mmHg 79%
    05:00 +22°C° 0 mm 1 mps 693 mmHg 78%
    06:00 +23°C° 0 mm 1 mps 694 mmHg 76%
    07:00 +25°C° 0 mm 1 mps 694 mmHg 73%
    08:00 +26°C° 0 mm 1 mps 695 mmHg 71%
    09:00 +27°C° 0.1 mm 2 mps 695 mmHg 68%
    10:00 +27°C° 0.1 mm 2 mps 695 mmHg 65%
    11:00 +28°C° 0.1 mm 3 mps 695 mmHg 61%
    12:00 +29°C° 0.1 mm 3 mps 694 mmHg 60%
    13:00 +29°C° 0.1 mm 4 mps 694 mmHg 58%
    14:00 +30°C° 0.1 mm 4 mps 693 mmHg 56%
    15:00 +29°C° 0 mm 4 mps 693 mmHg 60%
    16:00 +29°C° 0 mm 3 mps 693 mmHg 64%
    17:00 +28°C° 0 mm 3 mps 692 mmHg 68%
    18:00 +27°C° 0 mm 3 mps 693 mmHg 70%
    19:00 +25°C° 0 mm 2 mps 693 mmHg 72%
    20:00 +24°C° 0 mm 2 mps 694 mmHg 74%
    21:00 +23°C° 0 mm 1 mps 694 mmHg 72%
    22:00 +23°C° 0 mm 1 mps 694 mmHg 71%
    23:00 +23°C° 0 mm 1 mps 694 mmHg 69%
    Show more